[[{"header":{"parameterUnit":"m.s-1","parameterCategory":1,"la1":30.2991,"la2":30.254,"lo1":-89.0895,"lo2":-89.0444,"dy":0.0017,"dx":0.0017,"nx":28,"ny":28,"refTime":"2023-07-25T21:00:00:Z","depth":0,"parameterNumber":2,"parameterNumberName":"U-component_of_WINDS"},"data":[0,0,0,0,0,0,0,0,0,0,0,0,0,0,0,0,0,0,0,0,0,0,0,0,0,0,0,0,0,0,0,0,0,0,0,0,0,0,0,0,0,0,0,0,0,0,0,0,0,0,0,0,0,0,0,0,0,0,1.7395,1.7396,0,1.7483,1.7484,1.7485,1.7488,1.7487,1.7486,1.7485,1.7573,1.7576,1.7579,0,0,0,0,0,0,0,0,0,0,0,0,0,1.7228,1.7231,1.7395,1.7396,1.7397,1.7482,1.7484,1.7485,1.7488,1.7487,1.7486,1.7485,1.7572,1.7576,1.758,0,0,0,0,0,0,0,0,0,0,0,0,0,1.7306,1.7232,1.7395,1.7409,1.7412,1.7482,1.7484,1.7485,1.7488,1.7487,1.7485,1.7484,1.757,1.7575,1.758,1.7642,0,0,1.7595,1.7597,0,0,0,0,0,0,0,0,1.7302,1.7312,1.7406,1.7409,1.7411,1.7473,1.7457,1.7538,1.7489,1.7459,1.7485,1.7483,1.7541,1.7548,1.7568,1.7646,1.765,1.7596,1.7599,1.7601,1.7602,0,0,0,0,0,0,0,1.7296,1.7309,1.743,1.7407,1.741,1.741,1.742,1.7472,1.7508,1.7462,1.7462,1.7473,1.7542,1.7563,1.757,1.7651,1.7596,1.76,1.7603,1.7605,1.7781,1.7783,0,0,0,0,0,0,1.7289,1.7304,1.7427,1.7432,1.7352,1.7415,1.7425,1.7455,1.7507,1.7514,1.7474,1.7472,1.7555,1.7564,1.7573,1.7646,1.7601,1.7606,1.7608,1.7779,1.7781,1.7783,0,0,0,0,0,0,1.7285,1.7299,1.7423,1.7368,1.7384,1.7419,1.7452,1.7457,1.7478,1.7516,1.7522,1.7489,1.7554,1.7566,1.7624,1.7649,1.7608,1.7612,1.7777,1.778,1.7782,1.7795,0,0,0,0,0,0,1.728,1.7298,1.7323,1.7369,1.7387,1.7474,1.7454,1.746,1.7487,1.7486,1.7532,1.7538,1.7554,1.7617,1.7629,1.7656,1.7616,1.7775,1.7778,1.7781,1.7792,1.7798,1.7802,0,0,0,0,0,1.7274,1.7324,1.7324,1.7339,1.7419,1.7476,1.7486,1.7504,1.7489,1.7513,1.7537,1.7537,1.7645,1.7623,1.7637,1.7665,1.7774,1.7777,1.7781,1.779,1.7797,1.7802,0,0,0,0,0,0,1.728,1.733,1.7331,1.7397,1.7432,1.7476,1.7508,1.751,1.755,1.7547,1.7566,1.7577,1.7634,1.7656,1.763,1.7726,1.7707,1.7714,1.771,1.7716,1.7721,1.7714,1.762,0,0,0,0,0,1.7289,1.7331,1.7373,1.7427,1.7444,1.7473,1.7498,1.7508,1.7545,1.756,1.7588,1.7623,1.7665,1.7692,1.7732,1.7796,1.7804,1.7822,1.7827,1.7831,1.7836,1.7868,1.7875,1.7796,1.7796,1.7796,0,0,1.7307,1.734,1.7366,1.7428,1.7457,1.7499,1.7485,1.7531,1.7562,1.7567,1.7623,1.7645,1.7685,1.7745,1.7773,1.7765,1.786,1.7836,1.7838,1.7841,1.7873,1.788,1.7887,1.7798,1.7798,1.7797,0,0,1.7363,1.7393,1.744,1.7468,1.7511,1.7529,1.754,1.7584,1.7598,1.7655,1.7658,1.7695,1.7767,1.7795,1.7818,1.7881,1.7881,1.7894,1.7919,1.795,1.7956,1.7962,1.7982,1.7989,1.7899,1.7899,1.7899,0,1.7381,1.7445,1.7464,1.7509,1.7535,1.7541,1.7587,1.7614,1.7667,1.7685,1.7675,1.7764,1.7791,1.7857,1.7872,1.7892,1.7903,1.7888,1.7954,1.796,1.7965,1.7985,1.7992,1.79,1.79,1.79,1.79,0,1.7463,1.7508,1.7541,1.7592,1.7622,1.7668,1.7691,1.7719,1.7726,1.7745,1.7801,1.7835,1.788,1.7897,1.7905,1.7963,1.7956,1.795,1.7932,1.7974,1.7992,1.8,1.7902,1.7902,1.7901,1.7901,0,0,1.7525,1.7584,1.7596,1.7618,1.7665,1.7699,1.7744,1.7789,1.7811,1.7848,1.7884,1.7944,1.7938,1.7964,1.7975,1.8003,1.8047,1.7993,1.7994,1.8,1.811,1.8113,1.8121,1.8048,1.805,1.8051,1.8106,0,1.7584,1.7664,1.7681,1.775,1.779,1.7795,1.7834,1.7865,1.7884,1.7919,1.794,1.798,1.7971,1.7986,1.8014,1.8036,1.8069,1.8033,1.808,1.8082,1.8068,1.8131,1.8135,1.8185,1.8113,1.8115,1.8116,0,1.7664,1.7701,1.7773,1.7812,1.783,1.7864,1.7905,1.794,1.7975,1.7986,1.8015,1.8022,1.8067,1.8047,1.8108,1.8083,1.8103,1.8117,1.8119,1.8123,1.81,1.8135,1.8202,1.8209,1.8128,1.8127,1.8126,0,1.7698,1.7767,1.7818,1.7837,1.7885,1.7908,1.7929,1.7963,1.7988,1.8024,1.804,1.808,1.8102,1.8133,1.815,1.8134,1.8209,1.8191,1.8217,1.8217,1.8232,1.823,1.8301,1.8248,1.8248,1.8248,1.8248,0,1.7761,1.7804,1.7834,1.7866,1.7914,1.7932,1.7979,1.7999,1.8029,1.8063,1.8071,1.8102,1.8124,1.8159,1.8173,1.8219,1.823,1.8239,1.8242,1.8237,1.8236,1.825,1.8246,1.825,1.825,1.8249,1.8249,0,1.7807,1.7829,1.7885,1.7925,1.7936,1.7969,1.8002,1.8032,1.805,1.8093,1.8105,1.8133,1.8173,1.8194,1.8245,1.8254,1.8306,1.8308,1.8294,1.8295,1.8319,1.8316,1.84,1.8411,1.8353,1.8353,1.8354,0,1.7845,1.7878,1.7921,1.7944,1.7965,1.8004,1.8029,1.8047,1.8073,1.8114,1.8139,1.818,1.8213,1.8278,1.8302,1.8341,1.8342,1.8369,1.8348,1.8341,1.834,1.8337,1.8339,1.8372,1.8373,1.8373,1.8374,0,1.7909,1.7917,1.7954,1.7993,1.8023,1.8055,1.8086,1.8105,1.8128,1.8156,1.8198,1.8224,1.8275,1.8315,1.8355,1.8375,1.8377,1.838,1.8388,1.8383,1.8372,1.8376,1.8302,1.8378,1.8377,1.8377,1.8377,1.8377,1.795,1.7979,1.8013,1.8052,1.8078,1.8106,1.8135,1.8157,1.8192,1.8235,1.8243,1.8287,1.8319,1.8372,1.8394,1.8427,1.8421,1.8433,1.8435,1.8438,1.8437,1.8368,1.8434,1.8434,1.8434,1.8434,1.8434,0,1.8012,1.8034,1.807,1.8113,1.8143,1.8144,1.8178,1.8203,1.8241,1.8271,1.8303,1.835,1.8388,1.8415,1.8453,1.8474,1.8476,1.8484,1.8481,1.8485,1.8442,1.843,1.8481,1.8481,1.8481,1.8481,1.8481,1.8481,1.8048,1.8096,1.8108,1.8168,1.8189,1.8231,1.825,1.8276,1.83,1.8351,1.8383,1.84,1.8428,1.8468,1.8502,1.8509,1.8522,1.8529,1.8535,1.8494,1.8489,1.8484,1.8473,1.8532,1.8532,1.8576,1.8576,1.8576]},{"header":{"parameterUnit":"m.s-1","parameterCategory":1,"la1":30.2991,"la2":30.254,"lo1":-89.0895,"lo2":-89.0444,"dy":0.0017,"dx":0.0017,"nx":28,"ny":28,"refTime":"2023-07-25T21:00:00:Z","depth":0,"parameterNumber":3,"parameterNumberName":"V-component_of_WINDS"},"data":[0,0,0,0,0,0,0,0,0,0,0,0,0,0,0,0,0,0,0,0,0,0,0,0,0,0,0,0,0,0,0,0,0,0,0,0,0,0,0,0,0,0,0,0,0,0,0,0,0,0,0,0,0,0,0,0,0,0,1.1659,1.1659,0,1.1597,1.1596,1.1596,1.1532,1.1531,1.153,1.1529,1.1466,1.1465,1.1464,0,0,0,0,0,0,0,0,0,0,0,0,0,1.1721,1.172,1.1659,1.1659,1.1658,1.1597,1.1596,1.1596,1.1532,1.1531,1.153,1.1529,1.1466,1.1465,1.1464,0,0,0,0,0,0,0,0,0,0,0,0,0,1.168,1.172,1.1659,1.1619,1.1615,1.1597,1.1596,1.1595,1.1532,1.1531,1.153,1.1528,1.1466,1.1465,1.1464,1.1482,0,0,1.146,1.1459,0,0,0,0,0,0,0,0,1.1683,1.1678,1.1626,1.1622,1.1617,1.1571,1.1595,1.1557,1.1533,1.1564,1.1529,1.1528,1.1502,1.1497,1.1489,1.1479,1.1476,1.1459,1.1459,1.1458,1.1458,0,0,0,0,0,0,0,1.1685,1.168,1.1635,1.1625,1.1619,1.1603,1.1596,1.1587,1.1541,1.1561,1.1556,1.1549,1.1499,1.149,1.1487,1.1475,1.1459,1.1458,1.1457,1.1457,1.1474,1.1475,0,0,0,0,0,0,1.1695,1.1683,1.1637,1.1633,1.1647,1.1603,1.1595,1.1587,1.1541,1.1532,1.1551,1.1547,1.1493,1.1488,1.1484,1.15,1.1458,1.1457,1.1456,1.1472,1.1474,1.1475,0,0,0,0,0,0,1.1696,1.1691,1.1639,1.1657,1.1649,1.1603,1.1595,1.1586,1.1577,1.1533,1.1524,1.155,1.1492,1.1486,1.1482,1.1497,1.1456,1.1455,1.1471,1.1473,1.1474,1.1534,0,0,0,0,0,0,1.1698,1.1692,1.1699,1.1657,1.1648,1.1639,1.1596,1.1586,1.1575,1.157,1.153,1.1522,1.149,1.1484,1.1481,1.1495,1.1454,1.1469,1.1472,1.1474,1.1531,1.1538,1.1544,0,0,0,0,0,1.1701,1.1719,1.17,1.1694,1.1656,1.164,1.1635,1.1597,1.1577,1.1583,1.1554,1.1524,1.1496,1.1485,1.148,1.1494,1.1468,1.1471,1.1474,1.1528,1.1536,1.1544,0,0,0,0,0,0,1.1764,1.1713,1.1691,1.1696,1.1673,1.1629,1.1636,1.1608,1.159,1.1586,1.154,1.1532,1.1533,1.1513,1.1501,1.1507,1.1478,1.148,1.152,1.1528,1.1535,1.1539,1.1453,0,0,0,0,0,1.1779,1.177,1.1726,1.1735,1.1724,1.1682,1.1674,1.1647,1.1621,1.1611,1.1582,1.1557,1.1543,1.1534,1.1519,1.1527,1.1517,1.1534,1.1541,1.1547,1.1549,1.1549,1.1556,1.1484,1.1484,1.1484,0,0,1.1809,1.1779,1.1777,1.1747,1.1725,1.1717,1.1674,1.1668,1.1661,1.161,1.1604,1.1582,1.1551,1.1553,1.1552,1.1536,1.1566,1.155,1.1555,1.1554,1.1553,1.156,1.1566,1.1486,1.1486,1.1486,0,0,1.1859,1.1837,1.1841,1.182,1.1788,1.176,1.1761,1.1721,1.1704,1.1697,1.1658,1.1649,1.1626,1.1605,1.1591,1.1631,1.1602,1.1627,1.1662,1.1663,1.1669,1.1674,1.1687,1.1692,1.163,1.163,1.163,0,1.19,1.1887,1.1846,1.1842,1.1828,1.1781,1.1784,1.1766,1.1731,1.1722,1.1705,1.1673,1.165,1.1645,1.1654,1.1645,1.1644,1.1632,1.1672,1.1676,1.168,1.1691,1.1697,1.1633,1.1633,1.1632,1.1632,0,1.1938,1.1929,1.1936,1.1903,1.189,1.189,1.1848,1.184,1.1814,1.1787,1.178,1.175,1.1726,1.1723,1.1698,1.1714,1.1705,1.168,1.165,1.1691,1.1701,1.1705,1.1638,1.1637,1.1636,1.1635,0,0,1.2027,1.197,1.1974,1.1957,1.1918,1.1909,1.1906,1.1882,1.1876,1.1853,1.1847,1.1828,1.1804,1.1789,1.176,1.1762,1.1793,1.1736,1.1735,1.1747,1.1807,1.1825,1.1831,1.1773,1.1774,1.1774,1.1809,0,1.207,1.2061,1.2024,1.2025,1.2015,1.1969,1.1966,1.1941,1.1915,1.1902,1.1874,1.186,1.1831,1.1821,1.182,1.1789,1.1804,1.1786,1.1767,1.1767,1.1775,1.1836,1.1856,1.189,1.1813,1.1813,1.1814,0,1.2119,1.2098,1.2099,1.2058,1.2052,1.205,1.2024,1.2013,1.1983,1.1964,1.1946,1.1914,1.1905,1.1877,1.1865,1.1853,1.1843,1.1826,1.1827,1.1823,1.1792,1.1833,1.19,1.1905,1.182,1.1819,1.1819,0,1.2182,1.2155,1.2151,1.2138,1.2091,1.209,1.207,1.2038,1.2026,1.2003,1.1994,1.1971,1.1959,1.1941,1.1903,1.1886,1.1894,1.1863,1.1877,1.1878,1.188,1.1881,1.1945,1.1875,1.1875,1.1875,1.1875,0,1.2233,1.2235,1.2178,1.2176,1.2176,1.2133,1.2133,1.2109,1.2081,1.2072,1.2031,1.2023,1.1974,1.196,1.193,1.1923,1.1918,1.1901,1.1893,1.1904,1.1906,1.1897,1.1893,1.1876,1.1876,1.1876,1.1875,0,1.2304,1.2266,1.2259,1.2214,1.2203,1.2205,1.2165,1.2161,1.2132,1.2121,1.2116,1.2071,1.2052,1.2012,1.1983,1.1963,1.1963,1.1949,1.1973,1.1968,1.1983,1.1982,1.2044,1.2049,1.1977,1.1977,1.1978,0,1.2339,1.2339,1.2294,1.2285,1.2267,1.2253,1.224,1.2196,1.2184,1.2149,1.2148,1.2126,1.2106,1.2078,1.2042,1.2019,1.2003,1.2026,1.2,1.201,1.2002,1.2002,1.2001,1.2032,1.2033,1.2034,1.2035,0,1.2404,1.2385,1.2368,1.2344,1.2329,1.2308,1.2285,1.228,1.223,1.2219,1.2199,1.2184,1.2153,1.2131,1.2102,1.208,1.2049,1.2044,1.2045,1.2057,1.207,1.2062,1.1988,1.2042,1.2042,1.2041,1.2041,1.204,1.2457,1.2454,1.2422,1.2403,1.2381,1.236,1.2353,1.2323,1.2306,1.2277,1.2252,1.2235,1.2202,1.216,1.214,1.2124,1.2109,1.2112,1.2112,1.2114,1.2118,1.2073,1.2119,1.2118,1.2118,1.2118,1.2118,0,1.2519,1.2495,1.2479,1.2447,1.2433,1.2404,1.2377,1.2366,1.2351,1.2323,1.2304,1.2281,1.2259,1.222,1.2195,1.2189,1.2174,1.2184,1.2184,1.2179,1.2134,1.2134,1.2197,1.2197,1.2197,1.2197,1.2197,1.2197,1.2549,1.2543,1.252,1.2501,1.2477,1.2459,1.2445,1.2425,1.2402,1.2378,1.2359,1.2335,1.2302,1.2273,1.2251,1.224,1.2232,1.2246,1.2231,1.219,1.2182,1.2175,1.2175,1.2245,1.2245,1.2277,1.2277,1.2277]}]]